Hourly Data Report for September 28, 2017

All times are specified in Local Standard Time (LST). Add 1 hour to adjust for Daylight Saving Time where and when it is observed.

CLYDE RIVER A
NUNAVUT

70°29'09.000" N
68°31'01.000" W
26.50 m
2400804
71090
YCY

Download Data

Hourly Data (September 2017)
Hourly Data Report for September 28, 2017
Temp Definition
°C
Dew Point Temp Definition
°C
Rel Hum Definition
%
Wind Dir Definition
10's deg

Wind Spd Definition
km/h
Visibility Definition
km
Stn Press Definition
kPa
Hmdx Definition


Wind Chill Definition


Weather Definition


TIME
00:00 Legend Double Dagger -8.8 -10.0 91   0 16.1 100.11     LegendNANA
01:00 Legend Double Dagger -6.6 -8.2 89 6 5 16.1 100.05   -9 LegendNANA
02:00 Legend Double Dagger -7.4 -8.6 91   0 16.1 100.02     LegendNANA
03:00 Legend Double Dagger -4.9 -6.8 86 15 17 16.1 99.99   -11 LegendNANA
04:00 Legend Double Dagger -4.3 -6.8 83 16 17 16.1 99.95   -10 LegendNANA
05:00 Legend Double Dagger -4.3 -6.7 84 14 15 16.1 99.93   -10 LegendNANA
06:00 Legend Double Dagger -4.0 -7.1 79 14 18 16.1 99.91   -10 LegendNANA
07:00 Legend Double Dagger -2.7 -6.7 74 17 15 16.1 99.91   -8 LegendNANA
08:00 Legend Double Dagger -2.4 -6.4 74 13 11 16.1 99.88   -6 LegendNANA
09:00 Legend Double Dagger -2.2 -5.9 76 29 5 16.1 99.82   -4 LegendNANA
10:00 Legend Double Dagger -0.8 -5.3 72 4 9 14.5 99.80   -4 LegendNANA
11:00 Legend Double Dagger -1.7 -5.4 76 33 9 16.1 99.79   -5 LegendNANA
12:00 Legend Double Dagger -1.7 -5.7 74 32 11 16.1 99.80   -6 LegendNANA
13:00 Legend Double Dagger -1.3 -4.6 79 32 15 16.1 99.82   -6 LegendNANA
14:00 Legend Double Dagger -0.5 -5.4 69 31 11 16.1 99.83   -4 LegendNANA
15:00 Legend Double Dagger -0.6 -4.6 74 30 13 16.1 99.88   -5 Snow
16:00 Legend Double Dagger -1.7 -2.5 94 30 11 2.4 99.91   -6 Snow
17:00 Legend Double Dagger -1.7 -2.4 95 28 11 3.2 99.93   -6 Snow
18:00 Legend Double Dagger -1.4 -2.0 96 26 11 4.0 99.95   -5 Snow
19:00 Legend Double Dagger -1.4 -2.4 93 27 11 16.1 99.94   -5 LegendNANA
20:00 Legend Double Dagger -1.2 -2.3 92 30 17 16.1 99.94   -6 LegendNANA
21:00 Legend Double Dagger -1.0 -2.0 93 31 17 16.1 99.94   -6 LegendNANA
22:00 Legend Double Dagger -1.0 -2.1 92 32 17 16.1 99.95   -6 LegendNANA
23:00 Legend Double Dagger -1.7 -2.8 92 33 28 16.1 99.98   -8 Snow

Notes on Data Quality.

Legend

  • E = Estimated
  • M = Missing
  • NA = Not Available
  • ‡ = Partner data that is not subject to review by the National Climate Archives
Date modified: